Вернуться в каталог

CHUANG XIN 20C

CX-20C

АктивенСвязьLEO
NORAD 58427·PAYLOAD·🇨🇳 China

Запущен Nov 23, 2023 с Xichang Satellite Launch Center

Loading…

Ближайшие Пролёты (ближайшие 24 часа)

TLE

СвежийSource: Space-Track

Эпоха: Sep 14, 2026, 20:01 UTC

1 58427U 23181C   26257.83414363 -.00000087  00000-0  73290-4 0  9996
2 58427  49.9608 358.0226 0012029 171.8676 188.2397 13.41493171137788

Отслеживайте CHUANG XIN 20C в реальном времени с AllMySat

Download on the App Store